Menominee, MI

9:07 AM CDT on March 30, 2017 (GMT -0500)
Menominee-Marinette Twin County

Weather History for KMNM - March, 2013

Change the Weather History Date:

Friday, March 15, 2013

  Actual Average Record
Temperature  
Mean Temperature 24 °F -  
Max Temperature 32 °F 40 °F 60 °F (1990)
Min Temperature 17 °F 21 °F 0 °F (1956)
Degree Days  
Heating Degree Days 40    
Moisture  
Dew Point 21 °F    
Average Humidity 76    
Maximum Humidity 100    
Minimum Humidity 59    
Precipitation  
Precipitation 0.00 in - - ()
Sea Level Pressure  
Sea Level Pressure 29.94 in    
Wind  
Wind Speed 10 mph (ENE)    
Max Wind Speed 21 mph    
Max Gust Speed 26 mph    
Visibility 9 miles    
Events      
Averages and records for this station are not official NWS values.
T = Trace of Precipitation, MM = Missing Value Source: NWS Daily Summary

Daily Weather History Graph

Daily Weather History Graph

Search for Another Location

Airport or City:

Trip Planner

Search our weather history database for the weather conditions in past years. The results will help you decide how hot, cold, wet, or windy it might be!

Date:

Astronomy

Mar. 15, 2013 Rise Set
Actual Time 7:02 AM CDT 6:56 PM CDT
Civil Twilight 6:33 AM CDT 7:26 PM CDT
Nautical Twilight 5:59 AM CDT 8:00 PM CDT
Astronomical Twilight 5:24 AM CDT 8:35 PM CDT
Moon 8:40 AM CDT (3/15) 11:23 PM CDT (3/15)
Length of Visible Light 12h 52m
Length of Day
11h 54m
Waxing Crescent, 15% of the Moon is Illuminated
Mar 15
Waxing Crescent
Mar 19
First Quarter
Mar 27
Full
Apr 2
Last Quarter
Apr 10
New

Hourly Weather History & Observations

Time (CDT) Temp. Windchill Dew Point Humidity Pressure Visibility Wind Dir Wind Speed Gust Speed Precip Events Conditions
12:15 AM 30.2 °F 23.4 °F 23.0 °F 75% 29.95 in 10.0 mi WSW 6.9 mph - N/A   Overcast
12:35 AM 30.2 °F 22.6 °F 24.8 °F 80% 29.95 in 10.0 mi WSW 8.1 mph - N/A   Overcast
12:55 AM 30.2 °F 21.9 °F 24.8 °F 80% 29.94 in 10.0 mi WSW 9.2 mph - N/A   Overcast
1:15 AM 30.2 °F 23.4 °F 24.8 °F 80% 29.95 in 10.0 mi West 6.9 mph 18.4 mph N/A   Overcast
1:35 AM 30.2 °F 21.9 °F 26.6 °F 86% 29.94 in 10.0 mi West 9.2 mph - N/A   Overcast
1:55 AM 30.2 °F 22.6 °F 26.6 °F 86% 29.94 in 10.0 mi West 8.1 mph - N/A   Overcast
2:15 AM 30.2 °F 22.6 °F 26.6 °F 86% 29.93 in 10.0 mi West 8.1 mph - N/A   Overcast
2:35 AM 30.2 °F 24.3 °F 26.6 °F 86% 29.93 in 10.0 mi WSW 5.8 mph - N/A   Overcast
2:55 AM 30.2 °F 23.4 °F 26.6 °F 86% 29.92 in 10.0 mi West 6.9 mph - N/A   Overcast
3:15 AM 30.2 °F 23.4 °F 24.8 °F 80% 29.92 in 10.0 mi West 6.9 mph - N/A   Overcast
3:35 AM 32.0 °F 26.4 °F 24.8 °F 75% 29.91 in 10.0 mi West 5.8 mph - N/A   Overcast
3:55 AM 32.0 °F 24.8 °F 24.8 °F 75% 29.90 in 10.0 mi WSW 8.1 mph - N/A   Overcast
4:15 AM 32.0 °F 25.6 °F 26.6 °F 80% 29.90 in 10.0 mi West 6.9 mph - N/A   Overcast
4:55 AM 32.0 °F 26.4 °F 26.6 °F 80% 29.89 in 10.0 mi West 5.8 mph - N/A   Mostly Cloudy
5:15 AM 32.0 °F 26.4 °F 26.6 °F 80% 29.88 in 10.0 mi West 5.8 mph - N/A   Overcast
5:35 AM 32.0 °F 26.4 °F 26.6 °F 80% 29.89 in 10.0 mi West 5.8 mph - N/A   Overcast
5:55 AM 32.0 °F 26.4 °F 26.6 °F 80% 29.90 in 10.0 mi West 5.8 mph - N/A   Overcast
6:15 AM 32.0 °F 25.6 °F 26.6 °F 80% 29.90 in 10.0 mi West 6.9 mph - N/A   Overcast
6:35 AM 32.0 °F 27.5 °F 26.6 °F 80% 29.91 in 10.0 mi West 4.6 mph - N/A   Overcast
6:55 AM 32.0 °F 26.4 °F 26.6 °F 80% 29.90 in 9.0 mi West 5.8 mph - N/A   Overcast
7:15 AM 32.0 °F 28.7 °F 26.6 °F 80% 29.91 in 7.0 mi WNW 3.5 mph - N/A   Overcast
7:35 AM 32.0 °F - 26.6 °F 80% 29.92 in 7.0 mi Calm Calm - N/A   Overcast
7:55 AM 30.2 °F 21.9 °F 26.6 °F 86% 29.93 in 7.0 mi ENE 9.2 mph - N/A   Overcast
8:15 AM 30.2 °F 21.3 °F 26.6 °F 86% 29.94 in 3.0 mi ENE 10.4 mph - N/A   Overcast
8:35 AM 30.2 °F 23.4 °F 28.4 °F 93% 29.94 in 3.0 mi ENE 6.9 mph - N/A   Overcast
8:55 AM 30.2 °F 21.9 °F 28.4 °F 93% 29.95 in 3.0 mi NE 9.2 mph - N/A   Overcast
9:15 AM 30.2 °F 22.6 °F 26.6 °F 86% 29.95 in 5.0 mi NE 8.1 mph - N/A   Overcast
9:35 AM 30.2 °F 21.3 °F 26.6 °F 86% 29.95 in 10.0 mi ENE 10.4 mph - N/A   Overcast
9:55 AM 30.2 °F 20.8 °F 26.6 °F 86% 29.95 in 10.0 mi NE 11.5 mph - N/A   Overcast
10:15 AM 30.2 °F 23.4 °F 26.6 °F 86% 29.95 in 10.0 mi NE 6.9 mph - N/A   Overcast
10:35 AM 30.2 °F 20.2 °F 26.6 °F 86% 29.95 in 10.0 mi NE 12.7 mph - N/A   Overcast
10:55 AM 30.2 °F 20.2 °F 24.8 °F 80% 29.95 in 10.0 mi East 12.7 mph 16.1 mph N/A   Overcast
11:15 AM 30.2 °F 21.3 °F 23.0 °F 75% 29.95 in 10.0 mi East 10.4 mph - N/A   Overcast
11:35 AM 30.2 °F 20.2 °F 21.2 °F 69% 29.95 in 10.0 mi East 12.7 mph - N/A   Overcast
11:55 AM 30.2 °F 21.3 °F 21.2 °F 69% 29.95 in 10.0 mi East 10.4 mph - N/A   Overcast
12:15 PM 30.2 °F 19.8 °F 21.2 °F 69% 29.95 in 10.0 mi East 13.8 mph - N/A   Overcast
12:35 PM 30.2 °F 20.2 °F 21.2 °F 69% 29.95 in 10.0 mi East 12.7 mph - N/A   Overcast
12:55 PM 30.2 °F 20.2 °F 21.2 °F 69% 29.95 in 10.0 mi East 12.7 mph - N/A   Overcast
1:15 PM 30.2 °F 20.2 °F 21.2 °F 69% 29.95 in 10.0 mi East 12.7 mph - N/A   Overcast
1:35 PM 30.2 °F 19.3 °F 21.2 °F 69% 29.95 in 10.0 mi East 15.0 mph - N/A   Overcast
1:55 PM 28.4 °F 18.0 °F 19.4 °F 69% 29.95 in 10.0 mi East 12.7 mph 18.4 mph N/A   Mostly Cloudy
2:15 PM 30.2 °F 18.9 °F 21.2 °F 69% 29.95 in 10.0 mi East 16.1 mph - N/A   Mostly Cloudy
2:35 PM 30.2 °F 18.5 °F 21.2 °F 69% 29.94 in 10.0 mi East 17.3 mph 20.7 mph N/A   Partly Cloudy
2:55 PM 30.2 °F 18.5 °F 19.4 °F 64% 29.94 in 10.0 mi East 17.3 mph 21.9 mph N/A   Mostly Cloudy
3:15 PM 28.4 °F 16.6 °F 17.6 °F 64% 29.94 in 10.0 mi East 16.1 mph - N/A   Overcast
3:35 PM 28.4 °F 17.0 °F 19.4 °F 69% 29.93 in 10.0 mi East 15.0 mph 20.7 mph N/A   Mostly Cloudy
3:55 PM 28.4 °F 15.8 °F 19.4 °F 69% 29.94 in 10.0 mi East 18.4 mph 23.0 mph N/A   Clear
4:15 PM 28.4 °F 16.2 °F 19.4 °F 69% 29.94 in 10.0 mi East 17.3 mph 23.0 mph N/A   Clear
4:35 PM 28.4 °F 16.6 °F 19.4 °F 69% 29.94 in 10.0 mi East 16.1 mph - N/A   Scattered Clouds
4:55 PM 28.4 °F 15.4 °F 15.8 °F 59% 29.94 in 10.0 mi East 19.6 mph 25.3 mph N/A   Mostly Cloudy
5:15 PM 26.6 °F 14.3 °F 17.6 °F 69% 29.94 in 10.0 mi East 16.1 mph 23.0 mph N/A   Overcast
5:35 PM 26.6 °F 13.8 °F 15.8 °F 64% 29.94 in 10.0 mi East 17.3 mph 21.9 mph N/A   Overcast
5:55 PM 26.6 °F 14.3 °F 14.0 °F 59% 29.93 in 10.0 mi East 16.1 mph - N/A   Overcast
6:15 PM 26.6 °F 14.7 °F 14.0 °F 59% 29.94 in 10.0 mi East 15.0 mph 23.0 mph N/A   Overcast
6:35 PM 26.6 °F 12.7 °F 14.0 °F 59% 29.95 in 10.0 mi ENE 20.7 mph 24.2 mph N/A   Overcast
6:55 PM 26.6 °F 14.3 °F 14.0 °F 59% 29.95 in 10.0 mi ENE 16.1 mph - N/A   Overcast
7:15 PM 24.8 °F 11.5 °F 14.0 °F 64% 29.95 in 10.0 mi ENE 17.3 mph 21.9 mph N/A   Overcast
7:35 PM 24.8 °F 10.3 °F 14.0 °F 64% 29.95 in 10.0 mi ENE 20.7 mph 26.5 mph N/A   Overcast
7:55 PM 24.8 °F 11.1 °F 14.0 °F 64% 29.95 in 10.0 mi ENE 18.4 mph 21.9 mph N/A   Overcast
8:15 PM 24.8 °F 10.7 °F 12.2 °F 59% 29.95 in 10.0 mi ENE 19.6 mph 25.3 mph N/A   Overcast
8:35 PM 23.0 °F 8.7 °F 14.0 °F 68% 29.95 in 10.0 mi ENE 18.4 mph - N/A   Overcast
8:55 PM 23.0 °F 8.7 °F 12.2 °F 63% 29.96 in 10.0 mi ENE 18.4 mph 21.9 mph N/A   Overcast
9:15 PM 21.2 °F 6.4 °F 12.2 °F 68% 29.97 in 10.0 mi ENE 18.4 mph 21.9 mph N/A   Overcast
9:35 PM 21.2 °F 6.8 °F 14.0 °F 74% 29.98 in 5.0 mi NE 17.3 mph 20.7 mph N/A   Overcast
9:55 PM 19.4 °F 6.6 °F 15.8 °F 86% 29.98 in 3.0 mi NE 12.7 mph - N/A   Overcast
10:15 PM 19.4 °F 6.0 °F 17.6 °F 93% 29.98 in 2.0 mi NE 13.8 mph - N/A   Overcast
10:35 PM 19.4 °F 9.5 °F 17.6 °F 93% 29.97 in 2.0 mi ENE 8.1 mph - N/A   Overcast
10:55 PM 19.4 °F 7.2 °F 17.6 °F 93% 29.97 in 2.0 mi East 11.5 mph - N/A   Overcast
11:15 PM 19.4 °F 8.6 °F 17.6 °F 93% 29.97 in 2.0 mi NE 9.2 mph - N/A   Overcast
11:35 PM 17.6 °F 8.2 °F 17.6 °F 100% 29.97 in 2.0 mi NE 6.9 mph - N/A   Overcast
11:55 PM 19.4 °F 7.9 °F 17.6 °F 93% 29.97 in 2.5 mi NNE 10.4 mph - N/A   Overcast